JL1LCW-13 Weather Reports


time (UTC)temp
F
wind
direction
speed
knots
gust
knots
rain 1hr
in
rain 24hr
in
rain mn
in
humidity
%
barometer
mb
20260504205158 48 202 0.0 0.0 0.00 0.16 0.00 93 1019.0
20260504203657 46 225 0.0 0.0 0.00 0.16 0.00 94 1019.0
20260504195158 50 270 0.0 4.3 0.00 0.16 0.00 84 1017.0
20260504193658 50 292 0.0 4.3 0.00 0.16 0.00 82 1017.0
20260504185158 54 247 1.7 4.3 0.00 0.16 0.00 74 1016.0
20260504183658 54 270 1.7 5.2 0.00 0.16 0.00 75 1016.0
20260504175157 54 292 1.7 7.0 0.00 0.16 0.00 72 1014.0
20260504173659 54 112 1.7 7.0 0.00 0.16 0.00 72 1014.0
20260504045159 82 247 14.8 19.1 0.00 0.16 0.16 74 995.0
20260504043659 81 270 10.4 19.1 0.00 0.16 0.16 75 996.0
20260504035158 81 270 5.2 19.1 0.00 0.16 0.16 82 996.0
20260504033657 79 270 5.2 19.1 0.00 0.16 0.16 84 996.0
20260504025157 79 225 8.7 15.6 0.00 0.16 0.16 89 997.0
20260504023659 79 292 11.3 15.6 0.00 0.16 0.16 91 997.0
20260504015158 77 270 8.7 15.6 0.00 0.16 0.16 98 997.0
20260504013657 77 270 8.7 15.6 0.00 0.16 0.16 99 997.0
20260504005157 75 247 8.7 19.1 0.00 0.16 0.16 99 997.0
20260504003659 79 292 8.7 19.1 0.00 0.16 0.16 99 997.0
20260503235157 75 270 8.7 21.7 0.00 0.16 0.16 99 997.0
20260503233657 75 270 5.2 22.6 0.01 0.16 0.16 99 997.0
20260503225157 75 270 12.2 26.1 0.12 0.16 0.16 99 997.0
20260503223659 75 292 15.6 26.1 0.12 0.15 0.15 99 997.0
20260503215157 73 247 14.8 20.9 0.04 0.04 0.04 99 997.0
20260503213657 72 225 19.1 18.2 0.03 0.03 0.03 99 997.0